TimeAEST,TemperatureF,Dew PointF,Humidity,Sea Level PressureIn,VisibilityMPH,Wind Direction,Wind SpeedMPH,Gust SpeedMPH,PrecipitationIn,Events,Conditions,WindDirDegrees,DateUTC
12:00 AM,77,74,87,29.94,,Calm,Calm,,,,,,2013-04-01 14:00:00
12:00 AM,77.0,73.4,89,29.95,-9999.0,Calm,Calm,-,N/A,,Unknown,0,2013-04-01 14:00:00
12:30 AM,77.0,73.4,89,29.95,-9999.0,North,2.3,-,N/A,,Unknown,350,2013-04-01 14:30:00
1:00 AM,77.0,73.4,89,29.92,-9999.0,Calm,Calm,-,N/A,,Unknown,0,2013-04-01 15:00:00
1:30 AM,77.0,73.4,89,29.92,-9999.0,North,1.2,-,N/A,,Unknown,350,2013-04-01 15:30:00
2:00 AM,77.0,75.2,94,29.92,-9999.0,NW,4.6,-,N/A,,Unknown,320,2013-04-01 16:00:00
2:30 AM,75.2,73.4,94,29.92,-9999.0,WNW,4.6,-,N/A,,Unknown,300,2013-04-01 16:30:00
3:00 AM,76,74,92,29.91,,NW,4.6,,,,,320,2013-04-01 17:00:00
3:00 AM,75.2,73.4,94,29.92,-9999.0,NW,4.6,-,N/A,,Unknown,310,2013-04-01 17:00:00
3:30 AM,75.2,73.4,94,29.89,-9999.0,North,5.8,-,N/A,,Unknown,350,2013-04-01 17:30:00
4:00 AM,77.0,73.4,89,29.89,-9999.0,North,4.6,-,N/A,,Unknown,360,2013-04-01 18:00:00
4:30 AM,75.2,73.4,94,29.89,-9999.0,NNE,6.9,-,N/A,,Unknown,30,2013-04-01 18:30:00
5:00 AM,77.0,73.4,89,29.92,-9999.0,NNE,4.6,-,N/A,,Unknown,20,2013-04-01 19:00:00
5:30 AM,75.2,73.4,94,29.92,-9999.0,NW,4.6,-,N/A,,Unknown,310,2013-04-01 19:30:00
6:00 AM,76,72,85,29.92,,Calm,Calm,,,,,,2013-04-01 20:00:00
6:00 AM,75.2,71.6,89,29.92,-9999.0,Calm,Calm,-,N/A,,Unknown,0,2013-04-01 20:00:00
6:30 AM,75.2,73.4,94,29.92,-9999.0,Calm,Calm,-,N/A,,Unknown,0,2013-04-01 20:30:00
7:00 AM,77.0,71.6,83,29.92,-9999.0,Calm,Calm,-,N/A,,Unknown,0,2013-04-01 21:00:00
7:30 AM,78.8,71.6,78,29.95,-9999.0,Calm,Calm,-,N/A,,Unknown,0,2013-04-01 21:30:00
8:00 AM,80.6,73.4,79,29.95,-9999.0,SSE,3.5,-,N/A,,Unknown,150,2013-04-01 22:00:00
8:30 AM,80.6,75.2,84,29.95,-9999.0,SSW,3.5,-,N/A,,Unknown,210,2013-04-01 22:30:00
9:00 AM,82,75,75,29.96,,SSE,3.5,,,,,160,2013-04-01 23:00:00
9:00 AM,82.4,75.2,79,29.95,-9999.0,SSE,3.5,-,N/A,,Unknown,160,2013-04-01 23:00:00
9:30 AM,82.4,75.2,79,29.95,-9999.0,SSE,5.8,-,N/A,,Unknown,150,2013-04-01 23:30:00
10:00 AM,80.6,73.4,79,29.95,-9999.0,SE,6.9,-,N/A,,Unknown,140,2013-04-02 00:00:00
10:30 AM,82.4,77.0,84,29.95,-9999.0,SE,9.2,-,N/A,,Unknown,140,2013-04-02 00:30:00
11:00 AM,82.4,75.2,79,29.95,-9999.0,SE,9.2,-,N/A,,Unknown,140,2013-04-02 01:00:00
11:30 AM,82.4,75.2,79,29.92,-9999.0,SE,11.5,-,N/A,,Unknown,130,2013-04-02 01:30:00
12:00 PM,81,76,80,29.92,,SE,11.5,,,,,140,2013-04-02 02:00:00
12:00 PM,80.6,75.2,84,29.92,-9999.0,SE,11.5,-,N/A,,Unknown,130,2013-04-02 02:00:00
12:30 PM,80.6,75.2,84,29.89,-9999.0,ESE,10.4,-,N/A,,Unknown,120,2013-04-02 02:30:00
1:00 PM,82.4,73.4,74,29.89,-9999.0,SE,11.5,-,N/A,,Unknown,140,2013-04-02 03:00:00
1:30 PM,80.6,71.6,74,29.89,-9999.0,East,12.7,-,N/A,,Unknown,100,2013-04-02 03:30:00
2:00 PM,80.6,73.4,79,29.89,-9999.0,East,16.1,-,N/A,,Unknown,100,2013-04-02 04:00:00
2:30 PM,78.8,73.4,83,29.89,-9999.0,East,17.3,-,N/A,,Unknown,100,2013-04-02 04:30:00
3:00 PM,80,75,79,29.89,,ESE,19.6,,,,,110,2013-04-02 05:00:00
3:00 PM,78.8,75.2,89,29.89,-9999.0,ESE,19.6,-,N/A,,Unknown,110,2013-04-02 05:00:00
3:30 PM,78.8,73.4,83,29.89,-9999.0,East,20.7,-,N/A,,Unknown,100,2013-04-02 05:30:00
4:00 PM,78.8,75.2,89,29.89,-9999.0,East,20.7,-,N/A,,Unknown,100,2013-04-02 06:00:00
4:30 PM,77.0,73.4,89,29.89,-9999.0,ESE,17.3,-,N/A,,Unknown,110,2013-04-02 06:30:00
5:00 PM,75.2,73.4,94,29.89,-9999.0,East,11.5,-,N/A,,Unknown,100,2013-04-02 07:00:00
5:30 PM,75.2,73.4,94,29.89,-9999.0,ESE,12.7,-,N/A,,Unknown,110,2013-04-02 07:30:00
6:00 PM,76,73,88,29.91,,ESE,13.8,,,,,120,2013-04-02 08:00:00
6:00 PM,77.0,73.4,89,29.92,-9999.0,ESE,13.8,-,N/A,,Unknown,120,2013-04-02 08:00:00
6:30 PM,77.0,73.4,89,29.92,-9999.0,ESE,16.1,-,N/A,,Unknown,120,2013-04-02 08:30:00
7:00 PM,77.0,73.4,89,29.92,-9999.0,ESE,15.0,-,N/A,,Unknown,120,2013-04-02 09:00:00
7:30 PM,77.0,73.4,89,29.92,-9999.0,ESE,13.8,-,N/A,,Unknown,120,2013-04-02 09:30:00
8:00 PM,77.0,73.4,89,29.95,-9999.0,ESE,11.5,-,N/A,,Unknown,120,2013-04-02 10:00:00
8:30 PM,77.0,73.4,89,29.95,-9999.0,ESE,11.5,-,N/A,,Unknown,110,2013-04-02 10:30:00
9:00 PM,77,73,85,29.96,,ESE,13.8,,,,,120,2013-04-02 11:00:00
9:00 PM,77.0,73.4,89,29.95,-9999.0,ESE,13.8,-,N/A,,Unknown,120,2013-04-02 11:00:00
9:30 PM,77.0,73.4,89,29.95,-9999.0,ESE,12.7,-,N/A,,Unknown,120,2013-04-02 11:30:00
10:00 PM,77.0,71.6,83,29.95,-9999.0,ESE,12.7,-,N/A,,Unknown,120,2013-04-02 12:00:00
10:30 PM,77.0,73.4,89,29.95,-9999.0,ESE,11.5,-,N/A,,Unknown,120,2013-04-02 12:30:00
11:00 PM,77.0,73.4,89,29.95,-9999.0,ESE,10.4,-,N/A,,Unknown,120,2013-04-02 13:00:00
11:30 PM,77.0,73.4,89,29.95,-9999.0,ESE,11.5,-,N/A,,Unknown,120,2013-04-02 13:30:00